Location: Peterborough
(44.3091°N, 78.3197°W)
Time: 04:27:47
(UTC-04:00)

A-11 Canister half - All Passes

Search period start: 02 April 2023 00:00
Search period end: 12 April 2023 00:00
Orbit: 1512 x 1687 km, 47.2° (Epoch: 01 April)

Date Brightness Start Highest point End Pass type
(mag) Time Alt. Az. Time Alt. Az. Time Alt. Az.
02 Apr - 00:30:52 10° WNW 00:40:57 81° NNE 00:51:13 10° ESE visible
02 Apr - 02:36:05 10° WNW 02:45:55 59° SW 02:55:48 10° SE visible
02 Apr - 04:42:47 10° W 04:49:23 20° SW 04:56:01 10° SSW visible
02 Apr - 17:58:14 10° SSE 18:04:07 18° SE 18:10:07 10° E daylight
02 Apr - 19:58:04 10° SW 20:07:24 57° SE 20:17:05 10° ENE visible
02 Apr - 22:02:24 10° WSW 22:12:15 82° NNW 22:22:27 10° ENE visible
03 Apr - 00:07:53 10° WNW 00:17:56 80° NNE 00:28:11 10° E visible
03 Apr - 02:13:05 10° WNW 02:22:58 61° SW 02:32:55 10° SE visible
03 Apr - 04:19:33 10° W 04:26:32 21° SW 04:33:32 10° S visible
03 Apr - 17:35:53 10° SSE 17:41:17 17° SE 17:46:47 10° E daylight
03 Apr - 19:35:15 10° SW 19:44:29 55° SE 19:54:03 10° ENE daylight
03 Apr - 21:39:26 10° WSW 21:49:15 83° NNW 21:59:26 10° ENE visible
03 Apr - 23:44:54 10° WNW 23:54:55 79° N 00:05:09 10° E visible
04 Apr - 01:50:06 10° WNW 02:00:01 64° SSW 02:10:01 10° SE visible
04 Apr - 03:56:21 10° W 04:03:41 23° SW 04:11:00 10° S visible
04 Apr - 17:13:38 10° SSE 17:18:29 15° ESE 17:23:22 10° E daylight
04 Apr - 19:12:27 10° SW 19:21:34 52° SE 19:31:03 10° ENE daylight
04 Apr - 21:16:28 10° WSW 21:26:16 84° NNW 21:36:25 10° ENE visible
04 Apr - 23:21:55 10° WNW 23:31:54 78° N 23:42:08 10° E visible
05 Apr - 01:27:07 10° WNW 01:37:03 67° SSW 01:47:06 10° SE visible
05 Apr - 03:33:12 10° W 03:40:48 25° SW 03:48:26 10° S visible
05 Apr - 16:51:30 10° SSE 16:55:40 14° ESE 16:59:51 10° E daylight
05 Apr - 18:49:39 10° SSW 18:58:40 49° SE 19:08:01 10° ENE daylight
05 Apr - 20:53:31 10° WSW 21:03:16 86° NNW 21:13:23 10° ENE visible
05 Apr - 22:58:56 10° W 23:08:52 77° N 23:19:05 10° E visible
06 Apr - 01:04:09 10° WNW 01:14:06 69° SSW 01:24:11 10° SE visible
06 Apr - 03:10:04 10° WNW 03:17:56 27° SW 03:25:50 10° S visible
06 Apr - 16:29:34 10° SE 16:32:51 12° ESE 16:36:10 10° E daylight
06 Apr - 18:26:52 10° SSW 18:35:46 47° SE 18:44:59 10° ENE daylight
06 Apr - 20:30:34 10° WSW 20:40:17 88° NNW 20:50:23 10° ENE visible
06 Apr - 22:35:58 10° W 22:45:52 77° N 22:56:04 10° E visible
07 Apr - 00:41:11 10° WNW 00:51:08 72° SSW 01:01:15 10° SE visible
07 Apr - 02:46:58 10° WNW 02:55:03 28° SW 03:03:11 10° S visible
07 Apr - 16:08:03 10° SE 16:10:03 11° ESE 16:12:03 10° ESE daylight
07 Apr - 18:04:06 10° SSW 18:12:52 44° SE 18:21:57 10° ENE daylight
07 Apr - 20:07:37 10° WSW 20:17:17 90° NNW 20:27:22 10° ENE visible
07 Apr - 22:12:59 10° W 22:22:50 76° N 22:33:01 10° E visible
08 Apr - 00:18:12 10° WNW 00:28:10 75° SSW 00:38:18 10° SE visible
08 Apr - 02:23:52 10° WNW 02:32:10 30° SW 02:40:32 10° S visible
08 Apr - 17:41:22 10° SSW 17:49:59 42° SE 17:58:55 10° ENE daylight
08 Apr - 19:44:41 10° WSW 19:54:19 88° SSE 20:04:21 10° ENE daylight
08 Apr - 21:50:01 10° W 21:59:50 76° N 22:10:00 10° E visible
08 Apr - 23:55:14 10° WNW 00:05:11 77° SSW 00:15:21 10° SE visible
09 Apr - 02:00:47 10° WNW 02:09:17 32° SW 02:17:51 10° S visible
09 Apr - 17:18:38 10° SSW 17:27:06 39° SE 17:35:52 10° ENE daylight
09 Apr - 19:21:45 10° WSW 19:31:20 86° SSE 19:41:20 10° ENE daylight
09 Apr - 21:27:01 10° W 21:36:49 76° N 21:46:57 10° E visible
09 Apr - 23:32:16 10° WNW 23:42:12 79° SSW 23:52:23 10° ESE visible
10 Apr - 01:37:44 10° WNW 01:46:23 34° SW 01:55:07 10° SSE visible
10 Apr - 16:55:55 10° SSW 17:04:14 37° SE 17:12:49 10° ENE daylight
10 Apr - 18:58:50 10° WSW 19:08:23 84° SSE 19:18:20 10° ENE daylight
10 Apr - 21:04:03 10° W 21:13:48 75° N 21:23:54 10° E visible
10 Apr - 23:09:18 10° WNW 23:19:14 82° SSW 23:29:24 10° ESE visible
11 Apr - 01:14:41 10° WNW 01:23:29 36° SW 01:32:23 10° SSE visible
11 Apr - 16:33:13 10° SSW 16:41:22 35° SE 16:49:45 10° ENE daylight
11 Apr - 18:35:55 10° WSW 18:45:25 82° SSE 18:55:20 10° ENE daylight
11 Apr - 20:41:05 10° W 20:50:47 75° N 21:00:52 10° E visible
11 Apr - 22:46:21 10° WNW 22:56:15 84° SSW 23:06:25 10° ESE visible
